GW0270 Weather Reports


time (UTC)temp
C
wind
direction
speed
KPH
gust
KPH
rain 1hr
cm
rain 24hr
cm
rain mn
cm
humidity
%
barometer
mb
20260510172016 15 242 3.2 14.5 0.00 0.56 0.00 84 1010.9
20260510171529 15 281 1.6 11.3 0.00 0.56 0.00 85 1011.0
20260510171013 15 0 3.2 11.3 0.00 0.56 0.00 84 1011.0
20260510170511 15 284 1.6 12.9 0.00 0.56 0.00 85 1011.1
20260510170030 15 304 1.6 12.9 0.00 0.56 0.00 86 1011.1
20260510165511 15 292 4.8 12.9 0.00 0.66 0.00 88 1011.2
20260510165012 15 0 0.0 0.0 0.00 0.66 0.00 89 1011.1
20260510164536 15 0 0.0 0.0 0.00 0.66 0.00 89 1011.0
20260510164014 15 0 0.0 0.0 0.00 0.66 0.00 88 1011.0
20260510163510 15 0 0.0 6.4 0.00 0.66 0.00 88 1011.0
20260510163026 15 0 0.0 8.0 0.00 0.66 0.00 90 1010.9
20260510162518 15 0 0.0 8.0 0.00 0.66 0.00 91 1011.0
20260510162013 15 188 0.0 8.0 0.00 0.66 0.00 92 1010.9
20260510161527 14 0 0.0 6.4 0.00 0.66 0.00 92 1011.0
20260510161011 14 0 0.0 11.3 0.00 0.66 0.00 92 1010.9
20260510160513 14 0 3.2 11.3 0.00 0.66 0.00 93 1010.9
20260510160032 13 0 0.0 0.0 0.00 0.66 0.00 94 1010.9
20260510155516 13 0 0.0 6.4 0.00 0.81 0.00 93 1011.0
20260510155010 13 0 0.0 6.4 0.00 0.81 0.00 93 1011.0
20260510154533 13 0 1.6 6.4 0.00 0.81 0.00 94 1011.0
20260510154013 13 0 0.0 3.2 0.00 0.81 0.00 94 1011.1
20260510153512 13 0 0.0 4.8 0.00 0.81 0.00 95 1011.1
20260510153030 13 0 0.0 4.8 0.00 0.81 0.00 95 1011.1
20260510152517 13 219 0.0 4.8 0.00 0.81 0.00 95 1011.2
20260510152011 13 0 0.0 4.8 0.00 0.81 0.00 96 1011.0
20260510151533 13 0 0.0 4.8 0.00 0.81 0.00 96 1010.9
20260510151013 13 0 0.0 3.2 0.00 0.81 0.00 97 1010.8
20260510150512 12 0 0.0 3.2 0.00 0.81 0.00 97 1010.8
20260510150028 12 0 0.0 3.2 0.00 0.81 0.00 97 1010.8
20260510145511 12 0 0.0 3.2 0.00 0.97 0.00 97 1010.9
20260510145010 12 0 0.0 4.8 0.00 0.97 0.00 97 1010.9
20260510144548 12 0 0.0 6.4 0.00 0.97 0.00 97 1010.8
20260510144012 12 0 0.0 6.4 0.00 0.97 0.00 97 1011.0
20260510143511 12 0 0.0 9.7 0.00 0.97 0.00 98 1010.8
20260510143030 12 0 0.0 9.7 0.00 0.97 0.00 97 1010.8
20260510142513 12 0 0.0 12.9 0.00 0.97 0.00 98 1010.8
20260510142013 12 0 0.0 12.9 0.00 0.97 0.00 98 1010.9
20260510141528 12 0 0.0 4.8 0.00 0.97 0.00 98 1010.7
20260510141013 12 0 0.0 3.2 0.00 0.97 0.00 98 1010.7
20260510140512 12 0 0.0 3.2 0.00 0.97 0.00 98 1010.8
20260510140028 11 0 0.0 1.6 0.00 0.97 0.00 98 1010.8
20260510135514 11 0 0.0 0.0 0.00 0.99 0.00 98 1010.7
20260510135011 11 0 0.0 0.0 0.00 0.99 0.00 98 1010.7
20260510134530 11 0 0.0 0.0 0.00 0.99 0.00 98 1010.8
20260510134011 11 0 0.0 1.6 0.00 0.99 0.00 98 1010.7
20260510133510 11 0 0.0 1.6 0.00 0.99 0.00 98 1010.8
20260510133029 11 0 0.0 6.4 0.00 0.99 0.00 98 1010.8
20260510132512 11 0 0.0 6.4 0.00 0.99 0.00 97 1010.9
20260510132013 11 0 0.0 6.4 0.00 0.99 0.00 97 1011.1
20260510131528 11 0 0.0 8.0 0.00 0.99 0.00 98 1011.0
20260510131012 11 0 0.0 9.7 0.00 0.99 0.00 98 1011.0
20260510130512 11 0 0.0 9.7 0.00 0.99 0.00 98 1011.0
20260510130029 11 0 0.0 6.4 0.00 0.99 0.00 98 1010.7
20260510125512 11 0 0.0 4.8 0.00 0.99 0.00 98 1010.6
20260510125011 11 0 0.0 6.4 0.00 0.99 0.00 98 1010.7
20260510124532 11 0 0.0 6.4 0.00 0.99 0.00 98 1010.7
20260510124011 11 0 0.0 6.4 0.00 0.99 0.00 98 1010.8
20260510123513 10 0 0.0 6.4 0.00 0.99 0.00 98 1010.9
20260510123030 10 223 0.0 6.4 0.00 0.99 0.00 98 1010.8
20260510122511 10 0 0.0 16.1 0.00 0.99 0.00 98 1010.8
20260510122010 10 0 0.0 16.1 0.00 0.99 0.00 98 1010.9
20260510121530 10 263 1.6 16.1 0.00 0.99 0.00 98 1010.8
20260510121010 10 0 0.0 1.6 0.00 0.99 0.00 97 1010.8
20260510120510 10 0 0.0 4.8 0.00 0.99 0.00 97 1010.7
20260510120038 10 0 0.0 6.4 0.00 0.99 0.00 98 1010.7
20260510115515 10 0 0.0 8.0 0.00 0.99 0.00 98 1010.7
20260510115010 10 0 0.0 8.0 0.00 0.99 0.00 97 1010.8
20260510114529 10 289 0.0 8.0 0.00 0.99 0.00 97 1010.7
20260510114009 10 0 0.0 0.0 0.00 0.99 0.00 97 1010.8
20260510113511 10 0 0.0 0.0 0.00 0.99 0.00 97 1010.6
20260510113028 10 0 0.0 0.0 0.00 0.99 0.00 97 1010.6
20260510112515 10 0 0.0 0.0 0.00 0.99 0.00 97 1010.5
20260510112012 10 0 0.0 0.0 0.00 0.99 0.00 97 1010.5
20260510111527 9 0 0.0 3.2 0.00 0.99 0.00 97 1010.4
20260510111012 9 0 0.0 6.4 0.00 0.99 0.00 97 1010.6
20260510110510 9 0 0.0 6.4 0.00 0.99 0.00 97 1010.6
20260510110031 9 0 0.0 6.4 0.00 0.99 0.00 97 1010.5
20260510105514 9 0 0.0 3.2 0.00 0.99 0.00 97 1010.3
20260510105013 9 0 0.0 1.6 0.00 0.99 0.00 97 1010.2
20260510104529 9 0 0.0 1.6 0.00 0.99 0.00 97 1010.0
20260510104012 9 0 0.0 1.6 0.00 0.99 0.00 97 1010.1
20260510103512 9 0 0.0 3.2 0.00 0.99 0.00 97 1010.0
20260510103027 9 0 0.0 6.4 0.00 0.99 0.00 97 1009.7
20260510102511 9 0 0.0 12.9 0.00 0.99 0.00 97 1009.6
20260510102011 9 0 3.2 12.9 0.00 0.99 0.00 97 1009.6
20260510101527 9 0 0.0 9.7 0.00 0.99 0.00 97 1009.6
20260510101011 9 0 0.0 9.7 0.00 0.99 0.00 97 1009.2
20260510100511 9 0 0.0 9.7 0.00 0.99 0.00 97 1009.0
20260510100030 9 209 0.0 6.4 0.00 0.99 0.00 97 1008.9
20260510095513 9 0 0.0 4.8 0.00 0.99 0.00 97 1009.0
20260510095013 9 0 0.0 4.8 0.00 0.99 0.00 97 1008.8
20260510094534 9 261 0.0 4.8 0.00 0.99 0.00 97 1008.9
20260510094013 9 0 0.0 1.6 0.00 0.99 0.00 97 1009.0
20260510093513 9 0 0.0 1.6 0.00 0.99 0.00 97 1009.0
20260510093028 9 0 0.0 4.8 0.00 0.99 0.00 97 1009.0
20260510092514 9 0 0.0 8.0 0.00 0.99 0.00 97 1009.0
20260510092012 9 0 0.0 8.0 0.00 0.99 0.00 97 1009.0
20260510091529 9 0 0.0 3.2 0.00 0.99 0.00 97 1008.7
20260510091012 9 0 0.0 3.2 0.00 0.99 0.00 97 1008.5
20260510090510 9 0 0.0 1.6 0.00 0.99 0.00 97 1009.0
20260510090028 9 0 0.0 4.8 0.00 0.99 0.00 97 1008.9
20260510085513 9 0 0.0 6.4 0.00 0.99 0.00 97 1008.8
20260510085013 9 0 0.0 6.4 0.00 0.99 0.00 97 1008.6
20260510084529 9 0 0.0 3.2 0.00 0.99 0.00 97 1008.9
20260510084013 9 0 0.0 4.8 0.00 0.99 0.00 97 1009.2
20260510083514 9 0 0.0 4.8 0.00 0.99 0.00 97 1009.2
20260510083029 9 0 0.0 0.0 0.00 0.99 0.00 97 1009.3
20260510082512 9 0 0.0 0.0 0.00 0.99 0.00 97 1009.3
20260510082014 9 0 0.0 0.0 0.00 0.99 0.00 97 1009.5
20260510081528 9 0 0.0 0.0 0.00 0.99 0.00 97 1009.4
20260510081010 9 0 0.0 0.0 0.00 0.99 0.00 97 1009.1
20260510080510 9 0 0.0 0.0 0.00 0.99 0.00 97 1009.2
20260510080032 9 0 0.0 0.0 0.00 0.99 0.00 97 1009.2
20260510075512 9 0 0.0 0.0 0.00 0.99 0.00 97 1009.3
20260510075010 9 0 0.0 0.0 0.00 0.99 0.00 97 1009.4
20260510074533 8 0 0.0 0.0 0.00 0.99 0.00 97 1009.3
20260510074013 8 0 0.0 0.0 0.00 0.99 0.00 97 1009.3
20260510073513 8 0 0.0 0.0 0.00 0.99 0.00 97 1009.2
20260510073027 8 0 0.0 0.0 0.00 0.99 0.00 97 1009.3
20260510072510 8 0 0.0 0.0 0.00 0.99 0.00 97 1009.3
20260510072011 8 0 0.0 0.0 0.00 0.99 0.00 97 1009.2
20260510071531 8 0 0.0 0.0 0.00 0.99 0.00 97 1009.3
20260510071011 8 0 0.0 0.0 0.00 0.99 0.00 96 1009.1
20260510070511 8 0 0.0 0.0 0.00 0.99 0.00 96 1009.1
20260510070030 8 0 0.0 0.0 0.00 0.99 0.00 96 1009.1
20260510065510 8 0 0.0 0.0 0.00 0.99 0.00 96 1009.2
20260510065011 8 0 0.0 0.0 0.00 0.99 0.00 97 1009.2
20260510064531 8 0 0.0 0.0 0.00 0.99 0.00 97 1009.2
20260510064015 8 0 0.0 0.0 0.00 0.99 0.00 96 1009.2
20260510063512 8 0 0.0 0.0 0.00 0.99 0.00 96 1009.4
20260510063030 8 0 0.0 0.0 0.00 0.99 0.00 96 1009.4
20260510062511 8 0 0.0 0.0 0.00 0.99 0.00 96 1009.2
20260510062009 8 0 0.0 1.6 0.00 0.99 0.00 96 1009.2
20260510061536 8 0 0.0 1.6 0.00 0.99 0.00 96 1009.4
20260510061014 8 0 0.0 0.0 0.00 0.99 0.00 96 1009.3
20260510060514 8 0 0.0 0.0 0.00 0.99 0.00 96 1009.4
20260510060044 8 0 0.0 0.0 0.00 0.99 0.00 96 1009.4
20260510055512 8 0 0.0 0.0 0.00 0.99 0.00 96 1009.3
20260510055014 8 0 0.0 0.0 0.00 0.99 0.00 96 1009.3
20260510054531 8 0 0.0 0.0 0.00 0.99 0.00 96 1009.4
20260510054013 8 0 0.0 0.0 0.00 0.99 0.00 96 1009.4
20260510053513 8 0 0.0 0.0 0.00 0.99 0.00 96 1009.5
20260510053030 8 0 0.0 0.0 0.00 0.99 0.00 96 1009.6
20260510052510 8 0 0.0 1.6 0.00 0.99 0.00 96 1009.6
20260510052011 8 0 0.0 1.6 0.00 0.99 0.00 96 1009.6
20260510051528 8 0 0.0 0.0 0.00 0.99 0.00 96 1009.6
20260510051013 8 0 0.0 0.0 0.00 0.99 0.00 96 1009.6
20260510050513 8 0 0.0 0.0 0.00 0.99 0.00 96 1009.6
20260510050030 8 0 0.0 6.4 0.00 0.99 0.00 96 1009.6
20260510045512 8 0 0.0 6.4 0.00 0.99 0.00 96 1009.7
20260510045014 8 0 0.0 6.4 0.00 0.99 0.00 96 1009.7
20260510044528 8 0 0.0 0.0 0.00 0.99 0.00 96 1009.8
20260510044014 8 0 0.0 0.0 0.00 0.99 0.00 96 1009.8
20260510043513 8 0 0.0 0.0 0.00 0.99 0.00 96 1009.8
20260510043030 8 0 0.0 0.0 0.00 0.99 0.00 96 1009.9
20260510042511 8 0 0.0 0.0 0.00 0.99 0.00 96 1009.8
20260510042010 8 0 0.0 0.0 0.00 0.99 0.00 96 1009.7
20260510041531 8 0 0.0 0.0 0.00 0.99 0.00 96 1009.8
20260510041014 8 0 0.0 0.0 0.00 0.99 0.00 96 1010.0
20260510040514 8 0 0.0 0.0 0.00 0.99 0.00 96 1009.8
20260510040032 8 0 0.0 0.0 0.00 0.99 0.00 96 1009.9
20260510035511 8 0 0.0 0.0 0.00 0.99 0.99 96 1009.9
20260510035013 8 0 0.0 0.0 0.00 0.99 0.99 96 1010.0
20260510034530 8 0 0.0 0.0 0.00 0.99 0.99 96 1009.9
20260510034010 8 0 0.0 0.0 0.00 0.99 0.99 96 1009.9
20260510033512 8 0 0.0 0.0 0.00 0.99 0.99 96 1009.9
20260510033028 8 0 0.0 0.0 0.00 0.99 0.99 96 1009.8
20260510032515 8 0 0.0 0.0 0.00 0.99 0.99 96 1009.8
20260510032014 8 0 0.0 0.0 0.00 0.99 0.99 96 1009.8
20260510031549 8 0 0.0 0.0 0.00 0.99 0.99 96 1009.9
20260510031011 8 0 0.0 0.0 0.00 0.99 0.99 96 1009.9
20260510030512 8 0 0.0 0.0 0.00 0.99 0.99 96 1010.0
20260510030029 8 0 0.0 0.0 0.00 0.99 0.99 96 1009.8
20260510025512 8 0 0.0 0.0 0.00 0.99 0.99 96 1009.9
20260510025014 8 0 0.0 0.0 0.00 0.99 0.99 96 1010.0
20260510024535 8 0 0.0 0.0 0.00 0.99 0.99 96 1009.8
20260510024012 8 0 0.0 0.0 0.00 0.99 0.99 96 1010.0
20260510023512 8 0 0.0 0.0 0.00 0.99 0.99 96 1010.0
20260510023041 8 0 0.0 0.0 0.00 0.99 0.99 96 1010.2
20260510022511 8 0 0.0 0.0 0.00 0.99 0.99 96 1010.3
20260510022014 8 0 0.0 0.0 0.00 0.99 0.99 96 1010.2
20260510021527 8 0 0.0 0.0 0.00 0.99 0.99 96 1010.3
20260510021012 8 0 0.0 0.0 0.00 0.99 0.99 96 1010.3
20260510020511 8 0 0.0 0.0 0.00 0.99 0.99 96 1010.3
20260510020030 8 0 0.0 0.0 0.00 0.99 0.99 95 1010.2
20260510015510 8 0 0.0 0.0 0.00 0.99 0.99 96 1010.1
20260510015011 8 0 0.0 0.0 0.00 0.99 0.99 96 1010.2
20260510014528 8 0 0.0 0.0 0.00 0.99 0.99 96 1010.5
20260510014013 8 0 0.0 0.0 0.00 0.99 0.99 96 1010.3
20260510013510 8 0 0.0 0.0 0.00 0.99 0.99 96 1010.3
20260510013027 8 0 0.0 0.0 0.00 0.99 0.99 96 1010.2
20260510012513 8 0 0.0 0.0 0.00 0.99 0.99 96 1010.2
20260510012011 8 0 0.0 0.0 0.00 0.99 0.99 96 1010.2
20260510011528 8 0 0.0 0.0 0.00 0.99 0.99 96 1010.3
20260510011017 8 0 0.0 0.0 0.00 0.99 0.99 96 1010.2
20260510010512 8 0 0.0 0.0 0.00 0.99 0.99 96 1010.2
20260510010032 8 0 0.0 0.0 0.00 0.99 0.99 95 1010.3
20260510005510 8 0 0.0 0.0 0.00 0.99 0.99 95 1010.2
20260510005012 8 0 0.0 0.0 0.00 0.99 0.99 95 1010.1
20260510004532 8 0 0.0 0.0 0.00 0.99 0.99 95 1010.1
20260510004013 8 0 0.0 0.0 0.00 0.99 0.99 95 1010.0
20260510003511 8 0 0.0 0.0 0.00 0.99 0.99 95 1010.1
20260510003030 8 0 0.0 0.0 0.00 0.99 0.99 95 1010.0
20260510002514 8 0 0.0 0.0 0.00 0.99 0.99 95 1009.9
20260510002012 8 0 0.0 0.0 0.00 0.99 0.99 95 1009.9
20260510001527 8 0 0.0 0.0 0.00 0.99 0.99 95 1009.8
20260510001011 8 0 0.0 0.0 0.00 0.99 0.99 95 1009.8
20260510000514 8 0 0.0 0.0 0.00 0.99 0.99 95 1009.8
20260510000028 8 0 0.0 0.0 0.00 0.99 0.99 95 1009.7
20260509235510 8 0 0.0 0.0 0.00 0.99 0.99 95 1009.7
20260509235013 8 0 0.0 0.0 0.00 0.99 0.99 95 1009.7
20260509234530 8 0 0.0 0.0 0.00 0.99 0.99 95 1009.6
20260509234013 8 0 0.0 0.0 0.00 0.99 0.99 95 1009.6
20260509233513 8 0 0.0 0.0 0.00 0.99 0.99 95 1009.7
20260509233030 8 0 0.0 0.0 0.00 0.99 0.99 95 1009.5
20260509232513 8 0 0.0 0.0 0.00 0.99 0.99 95 1009.6
20260509232011 8 0 0.0 0.0 0.00 0.99 0.99 95 1009.5
20260509231530 8 0 0.0 0.0 0.00 0.99 0.99 95 1009.7
20260509231010 8 0 0.0 0.0 0.00 0.99 0.99 95 1009.8
20260509230511 8 0 0.0 0.0 0.00 0.99 0.99 95 1009.7
20260509230028 8 0 0.0 0.0 0.00 0.99 0.99 95 1009.7
20260509225514 8 0 0.0 0.0 0.00 0.99 0.99 95 1009.7
20260509225012 8 0 0.0 0.0 0.00 0.99 0.99 95 1009.7
20260509224530 8 0 0.0 0.0 0.00 0.99 0.99 95 1009.7
20260509224010 8 0 0.0 0.0 0.00 0.99 0.99 95 1009.8
20260509223512 8 0 0.0 0.0 0.00 0.99 0.99 95 1009.7
20260509223030 8 0 0.0 0.0 0.00 0.99 0.99 95 1009.7
20260509222512 8 0 0.0 0.0 0.00 0.99 0.99 95 1009.7
20260509222013 8 0 0.0 0.0 0.00 0.99 0.99 95 1009.7
20260509221532 8 0 0.0 0.0 0.00 0.99 0.99 95 1009.7
20260509221011 8 0 0.0 0.0 0.00 0.99 0.99 95 1009.8
20260509220513 8 0 0.0 0.0 0.00 0.99 0.99 95 1009.8
20260509220031 8 0 0.0 0.0 0.00 0.99 0.99 95 1009.8
20260509215511 8 0 0.0 0.0 0.00 0.99 0.99 95 1009.8
20260509215013 8 0 0.0 0.0 0.00 0.99 0.99 95 1009.8
20260509214530 8 0 0.0 0.0 0.00 0.99 0.99 95 1009.9
20260509214013 8 0 0.0 0.0 0.00 0.99 0.99 95 1009.9
20260509213513 8 0 0.0 0.0 0.00 0.99 0.99 95 1010.1
20260509213030 8 0 0.0 0.0 0.00 0.99 0.99 95 1010.0
20260509212512 8 0 0.0 0.0 0.00 0.99 0.99 95 1010.2
20260509212013 8 0 0.0 0.0 0.03 0.99 0.99 95 1010.1
20260509211549 8 0 0.0 0.0 0.03 0.99 0.99 95 1010.1
20260509211010 8 0 0.0 0.0 0.03 0.99 0.99 95 1010.1
20260509210512 8 0 0.0 0.0 0.05 0.99 0.99 95 1010.1
20260509210029 8 0 0.0 0.0 0.05 0.99 0.99 95 1010.2
20260509205511 8 0 0.0 1.6 0.05 0.99 0.99 95 1010.2
20260509205016 8 0 0.0 1.6 0.05 0.99 0.99 95 1010.2
20260509204529 8 0 0.0 0.0 0.05 0.99 0.99 95 1010.3
20260509204010 8 0 0.0 3.2 0.08 0.99 0.99 95 1010.3
20260509203514 8 0 0.0 3.2 0.08 0.99 0.99 95 1010.3
20260509203039 8 0 0.0 0.0 0.08 0.99 0.99 95 1010.4
20260509202513 8 0 0.0 1.6 0.10 0.99 0.99 95 1010.3
20260509202012 8 0 0.0 6.4 0.08 0.97 0.97 95 1010.3
20260509201528 8 0 0.0 6.4 0.10 0.97 0.97 94 1010.3
20260509201014 8 0 0.0 0.0 0.10 0.97 0.97 95 1010.3
20260509200509 8 0 0.0 0.0 0.10 0.94 0.94 94 1010.1
20260509200030 8 0 0.0 3.2 0.13 0.94 0.94 94 1010.2
20260509195510 8 0 0.0 3.2 0.15 0.94 0.94 94 1010.4
20260509195011 8 321 0.0 3.2 0.15 0.94 0.94 94 1010.4
20260509194529 8 0 0.0 3.2 0.18 0.94 0.94 94 1010.6
20260509194012 8 321 0.0 1.6 0.18 0.91 0.91 94 1010.6
20260509193512 8 0 0.0 1.6 0.18 0.91 0.91 94 1010.7
20260509193033 8 0 0.0 1.6 0.18 0.91 0.91 94 1010.8
20260509192513 8 0 0.0 0.0 0.18 0.89 0.89 94 1010.8
20260509192013 8 0 0.0 0.0 0.20 0.89 0.89 94 1010.8
20260509191533 8 0 0.0 0.0 0.18 0.86 0.86 94 1010.8
20260509191015 8 0 0.0 0.0 0.20 0.86 0.86 94 1010.8
20260509190511 8 0 0.0 0.0 0.18 0.84 0.84 94 1010.9
20260509190028 8 0 0.0 3.2 0.18 0.81 0.81 94 1010.9
20260509185511 8 0 0.0 3.2 0.18 0.79 0.79 94 1010.9
20260509185014 8 0 0.0 1.6 0.20 0.79 0.79 95 1011.0
20260509184528 8 0 0.0 3.2 0.18 0.76 0.76 94 1011.1
20260509184011 8 0 0.0 3.2 0.18 0.74 0.74 94 1011.2
20260509183511 7 0 0.0 0.0 0.20 0.74 0.74 94 1011.1
20260509183033 7 0 0.0 0.0 0.18 0.71 0.71 94 1011.3
20260509182514 7 0 0.0 0.0 0.20 0.71 0.71 94 1011.2
20260509182011 7 0 0.0 0.0 0.20 0.69 0.69 94 1011.3
20260509181529 7 0 0.0 0.0 0.20 0.69 0.69 94 1011.3
20260509181012 7 0 0.0 0.0 0.20 0.66 0.66 94 1011.4
20260509180512 7 0 0.0 0.0 0.23 0.66 0.66 94 1011.5
20260509180028 7 0 0.0 0.0 0.20 0.64 0.64 94 1011.5
20260509175516 7 0 0.0 0.0 0.18 0.61 0.61 94 1011.5
20260509175012 7 0 0.0 0.0 0.18 0.58 0.58 94 1011.6
20260509174530 7 0 0.0 0.0 0.15 0.56 0.56 94 1011.7
20260509174013 7 0 0.0 0.0 0.15 0.56 0.56 94 1011.6
20260509173510 7 0 0.0 0.0 0.13 0.53 0.53 94 1011.7
20260509173030 7 0 0.0 0.0 0.13 0.51 0.51 94 1011.6
20260509172510 7 0 0.0 0.0 0.13 0.51 0.51 93 1011.7